TGZ767 UGTB-LFMN

Flight info

Callsign TGZ767
Flight time N/A
Altitude 38000
Route LAGAS N644 ROLIN UN644 KARDE UL851 KUGOS L851 ADINA DCT PEVEX DCT USIRO DCT ANASA DCT DAROJ DCT SONIK DCT BAXON DCT TIPNI DCT OKTAV DCT IXITO DCT BORDI
Aircraft B738/M-SDRWY/S

Departure

Time 2026-05-06 06:54
Airport Tbilisi International Airport (UGTB)

Arrival

Time N/A
Airport Nice-Côte d'Azur Airport (LFMN)
Time Latitude Longitude Altitude Speed Heading
2026-05-06 06:35 41.66861 44.96392 1526 ft 0 kts 43°
2026-05-06 06:45 41.66851 44.96380 1520 ft 2 kts 43°
2026-05-06 06:46 41.66840 44.96365 1524 ft 2 kts 43°
2026-05-06 06:46 41.66828 44.96350 1520 ft 2 kts 53°
2026-05-06 06:46 41.66821 44.96330 1518 ft 2 kts 112°
2026-05-06 06:46 41.66825 44.96321 1520 ft 1 kts 136°
2026-05-06 06:47 41.66826 44.96320 1520 ft 0 kts 136°
2026-05-06 06:49 41.66822 44.96326 1522 ft 1 kts 136°
2026-05-06 06:49 41.66805 44.96345 1521 ft 8 kts 141°
2026-05-06 06:49 41.66752 44.96399 1523 ft 10 kts 146°
2026-05-06 06:49 41.66691 44.96433 1524 ft 10 kts 182°
2026-05-06 06:50 41.66627 44.96412 1523 ft 9 kts 194°
2026-05-06 06:50 41.66565 44.96392 1523 ft 9 kts 194°
2026-05-06 06:50 41.66504 44.96371 1526 ft 9 kts 194°
2026-05-06 06:50 41.66428 44.96346 1520 ft 13 kts 194°
2026-05-06 06:51 41.66340 44.96317 1525 ft 13 kts 194°
2026-05-06 06:51 41.66255 44.96293 1525 ft 12 kts 184°
2026-05-06 06:51 41.66170 44.96315 1525 ft 12 kts 155°
2026-05-06 06:51 41.66103 44.96386 1525 ft 14 kts 135°
2026-05-06 06:52 41.66031 44.96479 1522 ft 14 kts 136°
2026-05-06 06:52 41.65957 44.96573 1525 ft 15 kts 141°
2026-05-06 06:52 41.65861 44.96578 1521 ft 15 kts 217°
2026-05-06 06:52 41.65851 44.96456 1519 ft 14 kts 300°
2026-05-06 06:53 41.65885 44.96405 1523 ft 0 kts 316°
2026-05-06 06:53 41.65886 44.96404 1522 ft 3 kts 316°
2026-05-06 06:53 41.66039 44.96210 1524 ft 63 kts 317°
2026-05-06 06:53 41.66507 44.95622 1523 ft 120 kts 317°
2026-05-06 06:54 41.67241 44.94701 1551 ft 166 kts 317°
2026-05-06 06:54 41.68104 44.93615 2202 ft 165 kts 315°
2026-05-06 06:54 41.68950 44.92542 2879 ft 174 kts 315°
2026-05-06 06:54 41.69879 44.91383 3433 ft 184 kts 316°
2026-05-06 06:55 41.70820 44.90213 3934 ft 185 kts 316°
2026-05-06 06:55 41.71767 44.89029 4450 ft 188 kts 316°
2026-05-06 06:55 41.72787 44.87752 4533 ft 216 kts 316°
2026-05-06 06:55 41.73941 44.86306 4870 ft 227 kts 314°
2026-05-06 06:56 41.74720 44.84483 5369 ft 233 kts 279°
2026-05-06 06:56 41.74557 44.82320 6050 ft 232 kts 256°
2026-05-06 06:56 41.74024 44.80270 6659 ft 233 kts 251°
2026-05-06 06:56 41.73423 44.78256 7265 ft 232 kts 250°
2026-05-06 06:57 41.72811 44.76232 7895 ft 231 kts 250°
2026-05-06 06:57 41.72213 44.74241 8515 ft 230 kts 250°
2026-05-06 06:57 41.71613 44.72232 9191 ft 229 kts 250°
2026-05-06 06:57 41.71010 44.70200 9575 ft 241 kts 250°
2026-05-06 06:58 41.70381 44.68065 9973 ft 252 kts 250°
2026-05-06 06:58 41.69734 44.65858 10326 ft 263 kts 250°
2026-05-06 06:58 41.69044 44.63503 10749 ft 273 kts 250°
2026-05-06 06:58 41.68341 44.61099 11189 ft 282 kts 250°
2026-05-06 06:59 41.67614 44.58615 11633 ft 291 kts 250°
2026-05-06 06:59 41.66867 44.56056 12089 ft 299 kts 250°
2026-05-06 06:59 41.66100 44.53434 12533 ft 304 kts 250°
2026-05-06 06:59 41.65327 44.50795 12972 ft 305 kts 250°
2026-05-06 07:00 41.64552 44.48148 13425 ft 307 kts 250°
2026-05-06 07:00 41.63770 44.45484 13871 ft 307 kts 250°
2026-05-06 07:00 41.62986 44.42811 14273 ft 311 kts 249°
2026-05-06 07:00 41.62193 44.40109 14682 ft 313 kts 249°
2026-05-06 07:01 41.61396 44.37397 15089 ft 315 kts 249°
2026-05-06 07:01 41.60586 44.34612 15331 ft 331 kts 252°
2026-05-06 07:01 41.60131 44.31523 15483 ft 348 kts 268°
2026-05-06 07:01 41.60238 44.28212 15635 ft 365 kts 275°
2026-05-06 07:02 41.60469 44.24756 15760 ft 382 kts 275°
2026-05-06 07:02 41.60729 44.21157 15975 ft 395 kts 275°
2026-05-06 07:02 41.60990 44.17510 16364 ft 402 kts 275°
2026-05-06 07:02 41.61253 44.13699 16810 ft 408 kts 275°
2026-05-06 07:03 41.61504 44.09903 17286 ft 413 kts 275°
2026-05-06 07:03 41.61750 44.06060 17749 ft 417 kts 275°
2026-05-06 07:03 41.61990 44.02219 18212 ft 422 kts 275°
2026-05-06 07:03 41.62230 43.98311 18637 ft 425 kts 274°
2026-05-06 07:04 41.62471 43.94342 19085 ft 428 kts 274°
2026-05-06 07:04 41.62710 43.90357 19520 ft 431 kts 274°
2026-05-06 07:04 41.62950 43.86340 19945 ft 434 kts 274°
2026-05-06 07:04 41.63190 43.82306 20367 ft 437 kts 274°
2026-05-06 07:05 41.63430 43.78244 20769 ft 440 kts 274°
2026-05-06 07:05 41.63671 43.74144 21182 ft 443 kts 274°
2026-05-06 07:05 41.63911 43.70026 21563 ft 446 kts 274°
2026-05-06 07:05 41.64074 43.67217 21817 ft 449 kts 274°
2026-05-06 07:06 41.64315 43.63047 22185 ft 452 kts 274°
2026-05-06 07:06 41.64557 43.58849 22564 ft 454 kts 274°
2026-05-06 07:06 41.64798 43.54629 22965 ft 457 kts 274°
2026-05-06 07:06 41.65039 43.50382 23315 ft 460 kts 274°
2026-05-06 07:07 41.65279 43.46114 23676 ft 462 kts 274°
2026-05-06 07:07 41.65520 43.41816 23981 ft 464 kts 274°
2026-05-06 07:07 41.65760 43.37493 24280 ft 466 kts 274°
2026-05-06 07:07 41.65999 43.33171 24560 ft 469 kts 274°
2026-05-06 07:08 41.66238 43.28817 24834 ft 471 kts 273°
2026-05-06 07:08 41.66477 43.24417 25106 ft 474 kts 273°
2026-05-06 07:08 41.66716 43.20010 25388 ft 476 kts 273°
2026-05-06 07:08 41.66953 43.15587 25653 ft 478 kts 273°
2026-05-06 07:09 41.67190 43.11141 25906 ft 480 kts 273°
2026-05-06 07:09 41.67427 43.06663 26149 ft 482 kts 273°
2026-05-06 07:09 41.67660 43.02224 26396 ft 485 kts 273°
2026-05-06 07:09 41.67895 42.97718 26717 ft 485 kts 273°
2026-05-06 07:10 41.68127 42.93229 27106 ft 484 kts 273°
2026-05-06 07:10 41.68358 42.88735 27483 ft 483 kts 273°
2026-05-06 07:10 41.68587 42.84246 27819 ft 483 kts 273°
2026-05-06 07:10 41.68814 42.79754 28155 ft 483 kts 273°
2026-05-06 07:11 41.69039 42.75271 28515 ft 483 kts 273°
2026-05-06 07:11 41.69262 42.70791 28908 ft 482 kts 272°
2026-05-06 07:11 41.69483 42.66317 29291 ft 481 kts 272°
2026-05-06 07:11 41.69702 42.61844 29651 ft 481 kts 272°
2026-05-06 07:12 41.69916 42.57440 30012 ft 480 kts 272°
2026-05-06 07:12 41.70130 42.52991 30356 ft 479 kts 272°
2026-05-06 07:12 41.70343 42.48552 30731 ft 476 kts 272°
2026-05-06 07:12 41.70552 42.44146 31154 ft 472 kts 272°
2026-05-06 07:13 41.70759 42.39765 31559 ft 469 kts 272°
2026-05-06 07:13 41.70962 42.35415 31896 ft 467 kts 272°
2026-05-06 07:13 41.71162 42.31077 32198 ft 466 kts 272°
2026-05-06 07:13 41.71361 42.26743 32516 ft 465 kts 272°
2026-05-06 07:14 41.71557 42.22421 32847 ft 463 kts 272°
2026-05-06 07:14 41.71749 42.18179 33161 ft 461 kts 272°
2026-05-06 07:14 41.71942 42.13896 33472 ft 460 kts 272°
2026-05-06 07:14 41.72131 42.09638 33778 ft 459 kts 272°
2026-05-06 07:15 41.72314 42.05978 34035 ft 457 kts 273°
2026-05-06 07:15 41.72563 42.01662 34292 ft 456 kts 273°
2026-05-06 07:15 41.72823 41.97432 34475 ft 456 kts 273°
2026-05-06 07:15 41.73086 41.93195 34623 ft 457 kts 273°
2026-05-06 07:16 41.73346 41.88951 34804 ft 457 kts 273°
2026-05-06 07:16 41.73600 41.84716 35005 ft 456 kts 273°
2026-05-06 07:16 41.73850 41.80482 35183 ft 456 kts 273°
2026-05-06 07:16 41.74099 41.76193 35347 ft 457 kts 273°
2026-05-06 07:17 41.74315 41.72415 35519 ft 456 kts 273°
2026-05-06 07:17 41.74560 41.68121 35725 ft 456 kts 273°
2026-05-06 07:17 41.74799 41.63889 35908 ft 456 kts 273°
2026-05-06 07:17 41.75036 41.59652 36082 ft 456 kts 273°
2026-05-06 07:18 41.75274 41.55400 36113 ft 458 kts 272°
2026-05-06 07:18 41.75745 41.46870 36124 ft 458 kts 272°
2026-05-06 07:19 41.76209 41.38370 36131 ft 457 kts 272°
2026-05-06 07:19 41.76669 41.29818 36111 ft 456 kts 272°
2026-05-06 07:20 41.77118 41.21342 36107 ft 455 kts 272°
2026-05-06 07:20 41.77561 41.12883 36112 ft 455 kts 272°
2026-05-06 07:21 41.77996 41.04433 36104 ft 455 kts 272°
2026-05-06 07:21 41.78426 40.95972 36110 ft 454 kts 272°
2026-05-06 07:22 41.78849 40.87517 36115 ft 455 kts 272°
2026-05-06 07:22 41.79264 40.79108 36114 ft 455 kts 272°
2026-05-06 07:23 41.79678 40.70626 36113 ft 456 kts 272°
2026-05-06 07:23 41.80080 40.62125 36113 ft 458 kts 272°
2026-05-06 07:24 41.80454 40.53592 36113 ft 458 kts 272°
2026-05-06 07:24 41.80822 40.44994 36112 ft 459 kts 272°
2026-05-06 07:25 41.81184 40.36488 36111 ft 460 kts 272°
2026-05-06 07:25 41.81543 40.27924 36118 ft 461 kts 272°
2026-05-06 07:26 41.81897 40.19327 36108 ft 462 kts 272°
2026-05-06 07:26 41.82245 40.10725 36115 ft 462 kts 272°
2026-05-06 07:27 41.82583 40.02124 36114 ft 462 kts 272°
2026-05-06 07:27 41.82915 39.93530 36111 ft 461 kts 272°
2026-05-06 07:28 41.83241 39.84944 36112 ft 461 kts 272°
2026-05-06 07:28 41.83715 39.72136 36115 ft 460 kts 271°
2026-05-06 07:29 41.84025 39.63564 36114 ft 460 kts 271°
2026-05-06 07:29 41.84329 39.55006 36113 ft 460 kts 271°
2026-05-06 07:30 41.84625 39.46433 36112 ft 460 kts 271°
2026-05-06 07:30 41.84915 39.37875 36115 ft 460 kts 271°
2026-05-06 07:31 41.85200 39.29290 36115 ft 460 kts 271°
2026-05-06 07:31 41.85478 39.20712 36115 ft 460 kts 271°
2026-05-06 07:32 41.85749 39.12185 36116 ft 461 kts 271°
2026-05-06 07:32 41.86016 39.03581 36115 ft 461 kts 271°
2026-05-06 07:33 41.86276 38.94977 36114 ft 461 kts 271°
2026-05-06 07:33 41.86530 38.86364 36115 ft 462 kts 271°
2026-05-06 07:34 41.86778 38.77724 36117 ft 462 kts 271°
2026-05-06 07:34 41.87020 38.69103 36113 ft 463 kts 271°
2026-05-06 07:35 41.87255 38.60458 36122 ft 463 kts 271°
2026-05-06 07:35 41.87484 38.51802 36118 ft 464 kts 271°
2026-05-06 07:36 41.87707 38.43148 36114 ft 464 kts 271°
2026-05-06 07:36 41.87922 38.34546 36115 ft 464 kts 271°
2026-05-06 07:37 41.88132 38.25878 36125 ft 464 kts 271°
2026-05-06 07:37 41.88336 38.17208 36114 ft 465 kts 271°
2026-05-06 07:38 41.88533 38.08528 36119 ft 465 kts 271°
2026-05-06 07:38 41.88723 37.99851 36119 ft 465 kts 271°
2026-05-06 07:39 41.88906 37.91233 36117 ft 465 kts 271°
2026-05-06 07:39 41.89084 37.82541 36124 ft 465 kts 271°
2026-05-06 07:40 41.89256 37.73859 36122 ft 465 kts 270°
2026-05-06 07:40 41.89421 37.65167 36120 ft 466 kts 270°
2026-05-06 07:41 41.89579 37.56476 36120 ft 466 kts 270°
2026-05-06 07:41 41.89731 37.47780 36125 ft 466 kts 270°
2026-05-06 07:42 41.89852 37.40553 36125 ft 466 kts 270°
2026-05-06 07:42 41.89992 37.31853 36128 ft 466 kts 270°
2026-05-06 07:43 41.90125 37.23151 36128 ft 466 kts 270°
2026-05-06 07:43 41.90253 37.14452 36122 ft 466 kts 270°
2026-05-06 07:44 41.90571 37.05753 36122 ft 467 kts 279°
2026-05-06 07:44 41.92449 36.97424 36133 ft 467 kts 292°
2026-05-06 07:45 41.95021 36.89392 36124 ft 468 kts 293°
2026-05-06 07:45 41.97597 36.81350 36127 ft 469 kts 292°
2026-05-06 07:46 42.00133 36.73270 36131 ft 469 kts 292°
2026-05-06 07:46 42.02641 36.65171 36134 ft 469 kts 292°
2026-05-06 07:47 42.05128 36.57101 36134 ft 470 kts 292°
2026-05-06 07:47 42.07625 36.48974 36126 ft 470 kts 292°
2026-05-06 07:48 42.10120 36.40833 36131 ft 470 kts 292°
2026-05-06 07:48 42.12612 36.32680 36134 ft 470 kts 292°
2026-05-06 07:49 42.15098 36.24522 36127 ft 470 kts 292°
2026-05-06 07:49 42.17576 36.16364 36121 ft 470 kts 292°
2026-05-06 07:50 42.20030 36.08260 36132 ft 470 kts 292°
2026-05-06 07:50 42.22494 36.00094 36129 ft 469 kts 292°
2026-05-06 07:51 42.24951 35.91928 36133 ft 469 kts 292°
2026-05-06 07:51 42.27403 35.83756 36127 ft 469 kts 292°
2026-05-06 07:52 42.29852 35.75567 36124 ft 469 kts 292°
2026-05-06 07:52 42.32287 35.67396 36122 ft 469 kts 292°
2026-05-06 07:53 42.34717 35.59219 36127 ft 469 kts 292°
2026-05-06 07:53 42.37144 35.51025 36128 ft 469 kts 292°
2026-05-06 07:54 42.39545 35.42892 36127 ft 469 kts 292°
2026-05-06 07:54 42.41955 35.34704 36127 ft 469 kts 292°
2026-05-06 07:55 42.44363 35.26497 36124 ft 469 kts 292°
2026-05-06 07:55 42.46762 35.18294 36125 ft 469 kts 292°
2026-05-06 07:56 42.49156 35.10081 36128 ft 468 kts 292°
2026-05-06 07:56 42.51550 35.01841 36126 ft 468 kts 292°
2026-05-06 07:57 42.53916 34.93671 36125 ft 468 kts 292°
2026-05-06 07:57 42.56294 34.85436 36128 ft 468 kts 292°
2026-05-06 07:58 42.58660 34.77214 36123 ft 468 kts 292°
2026-05-06 07:58 42.61019 34.68989 36122 ft 468 kts 292°
2026-05-06 07:59 42.63374 34.60753 36122 ft 467 kts 292°
2026-05-06 07:59 42.65721 34.52517 36122 ft 467 kts 292°
2026-05-06 08:00 42.68062 34.44274 36121 ft 467 kts 292°
2026-05-06 08:00 42.70378 34.36091 36121 ft 466 kts 292°
2026-05-06 08:01 42.72703 34.27853 36121 ft 466 kts 292°
2026-05-06 08:01 42.75022 34.19607 36117 ft 466 kts 292°
2026-05-06 08:02 42.77330 34.11376 36123 ft 465 kts 292°
2026-05-06 08:02 42.79687 34.03236 36122 ft 464 kts 294°
2026-05-06 08:03 42.82215 33.95129 36119 ft 464 kts 295°
2026-05-06 08:03 42.84741 33.87032 36119 ft 464 kts 295°
2026-05-06 08:04 42.87234 33.78934 36115 ft 463 kts 294°
2026-05-06 08:04 42.89708 33.70828 36111 ft 463 kts 294°
2026-05-06 08:05 42.92174 33.62719 36119 ft 462 kts 294°
2026-05-06 08:05 42.94632 33.54611 36116 ft 462 kts 294°
2026-05-06 08:06 42.97080 33.46512 36110 ft 461 kts 294°
2026-05-06 08:06 42.99521 33.38414 36118 ft 461 kts 294°
2026-05-06 08:07 43.01956 33.30311 36122 ft 460 kts 294°
2026-05-06 08:07 43.04365 33.22265 36121 ft 459 kts 294°
2026-05-06 08:08 43.06783 33.14166 36122 ft 459 kts 294°
2026-05-06 08:08 43.09190 33.06079 36118 ft 458 kts 294°
2026-05-06 08:09 43.11589 32.97996 36115 ft 458 kts 294°
2026-05-06 08:09 43.13868 32.89855 36117 ft 458 kts 292°
2026-05-06 08:10 43.16033 32.81671 36122 ft 457 kts 292°
2026-05-06 08:10 43.18187 32.73543 36119 ft 456 kts 292°
2026-05-06 08:11 43.20363 32.65377 36122 ft 456 kts 292°
2026-05-06 08:11 43.22536 32.57218 36120 ft 455 kts 292°
2026-05-06 08:12 43.24699 32.49068 36121 ft 455 kts 292°
2026-05-06 08:12 43.26856 32.40907 36125 ft 454 kts 292°
2026-05-06 08:13 43.29005 32.32755 36123 ft 454 kts 292°
2026-05-06 08:13 43.31323 32.24773 36126 ft 452 kts 296°
2026-05-06 08:14 43.33831 32.16830 36124 ft 452 kts 296°
2026-05-06 08:14 43.36318 32.08884 36123 ft 452 kts 296°
2026-05-06 08:15 43.38772 32.00917 36121 ft 452 kts 296°
2026-05-06 08:15 43.41198 31.92986 36124 ft 452 kts 296°
2026-05-06 08:16 43.43634 31.85001 36125 ft 452 kts 296°
2026-05-06 08:16 43.46065 31.77017 36123 ft 452 kts 296°
2026-05-06 08:17 43.48458 31.69002 36122 ft 452 kts 294°
2026-05-06 08:17 43.50695 31.60948 36125 ft 453 kts 294°
2026-05-06 08:18 43.52924 31.52828 36124 ft 453 kts 294°
2026-05-06 08:18 43.55164 31.44711 36123 ft 452 kts 294°
2026-05-06 08:19 43.57405 31.36599 36125 ft 453 kts 294°
2026-05-06 08:19 43.59630 31.28526 36124 ft 453 kts 293°
2026-05-06 08:20 43.61863 31.20393 36122 ft 453 kts 293°
2026-05-06 08:20 43.64091 31.12251 36121 ft 453 kts 293°
2026-05-06 08:21 43.66310 31.04113 36124 ft 453 kts 293°
2026-05-06 08:21 43.68528 30.95954 36128 ft 453 kts 293°
2026-05-06 08:22 43.70684 30.87769 36125 ft 453 kts 292°
2026-05-06 08:22 43.72814 30.79554 36124 ft 453 kts 292°
2026-05-06 08:23 43.74940 30.71361 36126 ft 452 kts 292°
2026-05-06 08:23 43.77051 30.63219 36122 ft 452 kts 292°
2026-05-06 08:24 43.79180 30.54984 36122 ft 451 kts 292°
2026-05-06 08:24 43.81002 30.46673 36123 ft 453 kts 284°
2026-05-06 08:25 43.82168 30.38091 36119 ft 453 kts 283°
2026-05-06 08:25 43.83090 30.30902 36117 ft 452 kts 283°
2026-05-06 08:26 43.84224 30.22318 36116 ft 452 kts 283°
2026-05-06 08:26 43.85381 30.13756 36121 ft 452 kts 283°
2026-05-06 08:27 43.86540 30.05205 36123 ft 452 kts 283°
2026-05-06 08:27 43.87695 29.96638 36121 ft 452 kts 283°
2026-05-06 08:28 43.88845 29.88056 36118 ft 453 kts 283°
2026-05-06 08:28 43.89988 29.79461 36120 ft 454 kts 283°
2026-05-06 08:29 43.91135 29.70785 36120 ft 454 kts 282°
2026-05-06 08:29 43.92268 29.62155 36118 ft 455 kts 282°
2026-05-06 08:30 43.93397 29.53508 36118 ft 456 kts 282°
2026-05-06 08:30 43.94525 29.44823 36119 ft 457 kts 282°
2026-05-06 08:31 43.95652 29.36082 36120 ft 457 kts 282°
2026-05-06 08:31 43.96767 29.27384 36117 ft 457 kts 282°
2026-05-06 08:32 43.97881 29.18631 36118 ft 457 kts 282°
2026-05-06 08:32 43.98981 29.09935 36114 ft 457 kts 282°
2026-05-06 08:33 44.00074 29.01245 36111 ft 457 kts 282°
2026-05-06 08:33 44.01167 28.92498 36111 ft 456 kts 281°
2026-05-06 08:34 44.02793 28.79374 36106 ft 455 kts 281°
2026-05-06 08:35 44.03859 28.70702 36106 ft 455 kts 281°
2026-05-06 08:35 44.04925 28.61972 36100 ft 454 kts 281°
2026-05-06 08:36 44.05975 28.53316 36093 ft 454 kts 281°
2026-05-06 08:36 44.07020 28.44603 36102 ft 454 kts 280°
2026-05-06 08:37 44.07778 28.35863 36093 ft 455 kts 277°
2026-05-06 08:37 44.08383 28.27047 36084 ft 455 kts 277°
2026-05-06 08:38 44.08990 28.18287 36076 ft 455 kts 277°
2026-05-06 08:38 44.09619 28.09522 36074 ft 454 kts 278°
2026-05-06 08:39 44.10256 28.00715 36069 ft 454 kts 278°
2026-05-06 08:39 44.10883 27.91979 36070 ft 454 kts 278°
2026-05-06 08:40 44.11504 27.83229 36068 ft 454 kts 278°
2026-05-06 08:40 44.12121 27.74421 36062 ft 454 kts 278°
2026-05-06 08:41 44.12727 27.65674 36057 ft 454 kts 278°
2026-05-06 08:41 44.13230 27.58342 36053 ft 454 kts 278°
2026-05-06 08:42 44.13823 27.49591 36066 ft 454 kts 278°
2026-05-06 08:42 44.14410 27.40849 36051 ft 453 kts 278°
2026-05-06 08:43 44.14992 27.32059 36054 ft 452 kts 278°
2026-05-06 08:43 44.15561 27.23384 36049 ft 452 kts 278°
2026-05-06 08:44 44.16128 27.14617 36047 ft 451 kts 277°
2026-05-06 08:44 44.16686 27.05905 36045 ft 450 kts 277°
2026-05-06 08:45 44.17235 26.97211 36040 ft 450 kts 278°
2026-05-06 08:45 44.17780 26.88482 36042 ft 449 kts 277°
2026-05-06 08:46 44.18317 26.79772 36042 ft 448 kts 277°
2026-05-06 08:46 44.18844 26.71125 36036 ft 448 kts 277°
2026-05-06 08:47 44.19364 26.62474 36033 ft 447 kts 277°
2026-05-06 08:47 44.19878 26.53825 36037 ft 447 kts 277°
2026-05-06 08:48 44.20388 26.45124 36029 ft 448 kts 277°
2026-05-06 08:48 44.20888 26.36471 36032 ft 448 kts 277°
2026-05-06 08:49 44.21383 26.27809 36038 ft 448 kts 277°
2026-05-06 08:49 44.21871 26.19140 36036 ft 448 kts 277°
2026-05-06 08:50 44.22352 26.10470 36039 ft 448 kts 277°
2026-05-06 08:50 44.22829 26.01756 36032 ft 447 kts 277°
2026-05-06 08:51 44.23297 25.93101 36037 ft 447 kts 277°
2026-05-06 08:51 44.23757 25.84468 36037 ft 447 kts 277°
2026-05-06 08:51 44.23986 25.80140 36169 ft 447 kts 277°
2026-05-06 08:52 44.24211 25.75818 36428 ft 446 kts 276°
2026-05-06 08:52 44.24396 25.71517 36698 ft 444 kts 276°
2026-05-06 08:52 44.24548 25.67222 36965 ft 442 kts 275°
2026-05-06 08:52 44.24687 25.62929 37172 ft 441 kts 275°
2026-05-06 08:53 44.24824 25.58591 37319 ft 442 kts 275°
2026-05-06 08:53 44.24959 25.54362 37484 ft 442 kts 275°
2026-05-06 08:53 44.25099 25.50025 37677 ft 441 kts 275°
2026-05-06 08:53 44.25238 25.45755 37867 ft 441 kts 275°
2026-05-06 08:54 44.25377 25.41477 38010 ft 440 kts 275°
2026-05-06 08:54 44.25656 25.32913 38026 ft 443 kts 275°
2026-05-06 08:55 44.25927 25.24356 38029 ft 440 kts 275°
2026-05-06 08:55 44.26190 25.15851 38026 ft 437 kts 275°
2026-05-06 08:56 44.26446 25.07392 38026 ft 435 kts 275°
2026-05-06 08:56 44.26693 24.99026 38023 ft 434 kts 275°
2026-05-06 08:57 44.26934 24.90627 38029 ft 433 kts 275°
2026-05-06 08:57 44.27170 24.82229 38024 ft 432 kts 275°
2026-05-06 08:58 44.27399 24.73839 38025 ft 433 kts 275°
2026-05-06 08:58 44.27622 24.65435 38027 ft 433 kts 275°
2026-05-06 08:59 44.27839 24.57027 38026 ft 434 kts 275°
2026-05-06 08:59 44.28051 24.48596 38024 ft 434 kts 275°
2026-05-06 09:00 44.28256 24.40163 38023 ft 435 kts 275°
2026-05-06 09:00 44.28455 24.31726 38025 ft 435 kts 275°
2026-05-06 09:01 44.28648 24.23290 38032 ft 434 kts 275°
2026-05-06 09:01 44.28834 24.14868 38016 ft 433 kts 274°
2026-05-06 09:02 44.29013 24.06467 38049 ft 432 kts 275°
2026-05-06 09:02 44.29188 23.98026 38044 ft 431 kts 275°
2026-05-06 09:03 44.29354 23.89662 38044 ft 431 kts 274°
2026-05-06 09:03 44.29515 23.81309 38051 ft 430 kts 274°
2026-05-06 09:04 44.29669 23.72982 38051 ft 429 kts 274°
2026-05-06 09:04 44.29816 23.64662 38043 ft 428 kts 274°
2026-05-06 09:05 44.29957 23.56355 38035 ft 428 kts 274°
2026-05-06 09:05 44.30071 23.49388 38033 ft 427 kts 274°
2026-05-06 09:06 44.30202 23.41089 38033 ft 427 kts 274°
2026-05-06 09:06 44.30325 23.32799 38026 ft 427 kts 274°
2026-05-06 09:07 44.30444 23.24499 38029 ft 427 kts 274°
2026-05-06 09:07 44.30556 23.16207 38029 ft 427 kts 274°
2026-05-06 09:08 44.30662 23.07922 38029 ft 426 kts 274°
2026-05-06 09:08 44.30761 22.99656 38029 ft 426 kts 274°
2026-05-06 09:09 44.30855 22.91400 38028 ft 425 kts 274°
2026-05-06 09:09 44.30943 22.83151 38026 ft 424 kts 274°
2026-05-06 09:10 44.31024 22.74981 38027 ft 423 kts 274°
2026-05-06 09:10 44.31100 22.66774 38027 ft 422 kts 273°
2026-05-06 09:11 44.31170 22.58576 38028 ft 421 kts 273°
2026-05-06 09:11 44.31285 22.50393 38029 ft 420 kts 274°
2026-05-06 09:12 44.31507 22.42298 38026 ft 419 kts 275°
2026-05-06 09:12 44.31735 22.34167 38025 ft 418 kts 274°
2026-05-06 09:13 44.31945 22.26060 38026 ft 417 kts 274°
2026-05-06 09:13 44.32142 22.17958 38029 ft 417 kts 274°
2026-05-06 09:14 44.32332 22.09805 38020 ft 417 kts 274°
2026-05-06 09:14 44.32513 22.01733 38015 ft 411 kts 274°
2026-05-06 09:14 44.32598 21.97801 38020 ft 399 kts 274°
2026-05-06 09:15 44.32680 21.93965 38018 ft 394 kts 274°
2026-05-06 09:15 44.32842 21.86349 38033 ft 390 kts 274°
2026-05-06 09:16 44.32999 21.78747 38029 ft 387 kts 273°
2026-05-06 09:16 44.33149 21.71233 38025 ft 386 kts 273°
2026-05-06 09:17 44.33294 21.63729 38043 ft 389 kts 273°
2026-05-06 09:17 44.33436 21.56098 38032 ft 396 kts 273°
2026-05-06 09:18 44.33574 21.48423 38035 ft 400 kts 273°
2026-05-06 09:18 44.33707 21.40642 38018 ft 399 kts 272°
2026-05-06 09:19 44.33833 21.32937 38011 ft 390 kts 272°
2026-05-06 09:19 44.33953 21.25365 38022 ft 390 kts 272°
2026-05-06 09:20 44.34069 21.17797 38027 ft 389 kts 272°
2026-05-06 09:20 44.34179 21.10235 38023 ft 389 kts 272°
2026-05-06 09:21 44.34284 21.02671 38023 ft 389 kts 272°
2026-05-06 09:21 44.34384 20.95101 38026 ft 390 kts 272°
2026-05-06 09:22 44.34479 20.87523 38021 ft 390 kts 272°
2026-05-06 09:22 44.34570 20.79917 38018 ft 391 kts 272°
2026-05-06 09:23 44.34656 20.72257 38016 ft 391 kts 272°
2026-05-06 09:23 44.34736 20.64648 38019 ft 392 kts 271°
2026-05-06 09:24 44.34811 20.57038 38022 ft 391 kts 271°
2026-05-06 09:24 44.34882 20.49430 38018 ft 391 kts 271°
2026-05-06 09:25 44.34947 20.41863 38016 ft 391 kts 271°
2026-05-06 09:25 44.35007 20.34260 38017 ft 391 kts 271°
2026-05-06 09:26 44.35062 20.26664 38018 ft 390 kts 271°
2026-05-06 09:26 44.35112 20.19086 38010 ft 390 kts 271°
2026-05-06 09:27 44.35157 20.11516 38004 ft 389 kts 271°
2026-05-06 09:27 44.35196 20.03963 38016 ft 388 kts 271°
2026-05-06 09:28 44.35231 19.96423 38006 ft 388 kts 271°
2026-05-06 09:28 44.35261 19.88897 38008 ft 387 kts 270°
2026-05-06 09:29 44.35286 19.81387 38009 ft 386 kts 270°
2026-05-06 09:29 44.35306 19.73923 38003 ft 386 kts 270°
2026-05-06 09:30 44.35320 19.66370 38008 ft 386 kts 270°
2026-05-06 09:30 44.35330 19.58930 38000 ft 385 kts 270°
2026-05-06 09:31 44.35336 19.51449 38004 ft 385 kts 270°
2026-05-06 09:31 44.35336 19.43987 38005 ft 384 kts 270°
2026-05-06 09:32 44.35331 19.36516 38004 ft 384 kts 270°
2026-05-06 09:32 44.35322 19.29054 37990 ft 383 kts 270°
2026-05-06 09:33 44.35308 19.21611 38001 ft 383 kts 269°
2026-05-06 09:33 44.35290 19.14154 38005 ft 384 kts 269°
2026-05-06 09:34 44.35365 19.06696 37997 ft 384 kts 272°
2026-05-06 09:34 44.35643 19.00450 38003 ft 384 kts 273°
2026-05-06 09:35 44.36012 18.92971 38000 ft 385 kts 273°
2026-05-06 09:35 44.36359 18.85483 38000 ft 386 kts 272°
2026-05-06 09:36 44.36687 18.78004 38000 ft 386 kts 272°
2026-05-06 09:36 44.37005 18.70507 37996 ft 386 kts 272°
2026-05-06 09:37 44.37316 18.62995 37989 ft 387 kts 272°
2026-05-06 09:37 44.37623 18.55467 37994 ft 387 kts 272°
2026-05-06 09:38 44.37925 18.47942 37986 ft 387 kts 272°
2026-05-06 09:38 44.38221 18.40430 37990 ft 388 kts 272°
2026-05-06 09:39 44.38514 18.32900 37996 ft 388 kts 272°
2026-05-06 09:39 44.38803 18.25322 37983 ft 387 kts 271°
2026-05-06 09:40 44.39085 18.17794 37995 ft 388 kts 271°
2026-05-06 09:40 44.39498 18.06552 37980 ft 387 kts 271°
2026-05-06 09:41 44.39768 17.98996 37991 ft 387 kts 271°
2026-05-06 09:41 44.40035 17.91483 37969 ft 386 kts 271°
2026-05-06 09:42 44.40293 17.83996 37984 ft 385 kts 271°
2026-05-06 09:42 44.40545 17.76512 37982 ft 385 kts 270°
2026-05-06 09:43 44.40794 17.68978 37980 ft 385 kts 270°
2026-05-06 09:43 44.41038 17.61475 37986 ft 386 kts 270°
2026-05-06 09:44 44.41277 17.53966 37983 ft 387 kts 270°
2026-05-06 09:44 44.41512 17.46452 37992 ft 387 kts 270°
2026-05-06 09:45 44.41743 17.38914 37980 ft 388 kts 270°
2026-05-06 09:45 44.41968 17.31385 37990 ft 387 kts 270°
2026-05-06 09:46 44.42189 17.23849 37978 ft 388 kts 270°
2026-05-06 09:46 44.42404 17.16321 37977 ft 387 kts 270°
2026-05-06 09:47 44.42613 17.08842 37981 ft 387 kts 270°
2026-05-06 09:47 44.42819 17.01267 37971 ft 387 kts 269°
2026-05-06 09:48 44.43020 16.93742 37977 ft 387 kts 269°
2026-05-06 09:48 44.43215 16.86206 37977 ft 388 kts 269°
2026-05-06 09:49 44.43407 16.78657 37983 ft 388 kts 269°
2026-05-06 09:49 44.43593 16.71099 37989 ft 389 kts 269°
2026-05-06 09:50 44.43773 16.63576 37978 ft 390 kts 269°
2026-05-06 09:50 44.43950 16.55995 37970 ft 390 kts 269°
2026-05-06 09:51 44.44122 16.48404 37980 ft 389 kts 269°
2026-05-06 09:51 44.44289 16.40817 37983 ft 390 kts 269°
2026-05-06 09:52 44.44451 16.33231 37993 ft 390 kts 268°
2026-05-06 09:52 44.44609 16.25583 37991 ft 391 kts 268°
2026-05-06 09:53 44.44762 16.18028 37986 ft 390 kts 268°
2026-05-06 09:53 44.44871 16.10444 37984 ft 389 kts 266°
2026-05-06 09:54 44.44856 16.02838 37992 ft 387 kts 266°
2026-05-06 09:54 44.44824 15.95301 37996 ft 386 kts 266°
2026-05-06 09:55 44.44798 15.87795 37996 ft 385 kts 266°
2026-05-06 09:55 44.44773 15.80298 37981 ft 385 kts 266°
2026-05-06 09:56 44.44747 15.72815 37991 ft 383 kts 266°
2026-05-06 09:56 44.44716 15.65365 37987 ft 383 kts 266°
2026-05-06 09:57 44.44679 15.57912 37999 ft 382 kts 266°
2026-05-06 09:57 44.44638 15.50470 37991 ft 383 kts 266°
2026-05-06 09:58 44.44593 15.43007 37984 ft 384 kts 265°
2026-05-06 09:58 44.44543 15.35545 37985 ft 383 kts 266°
2026-05-06 09:59 44.44488 15.28076 38000 ft 384 kts 265°
2026-05-06 09:59 44.44426 15.20580 37989 ft 387 kts 265°
2026-05-06 10:00 44.44360 15.13034 37990 ft 389 kts 265°
2026-05-06 10:00 44.44288 15.05452 38004 ft 390 kts 265°
2026-05-06 10:01 44.44225 14.99076 37995 ft 391 kts 265°
2026-05-06 10:01 44.44142 14.91448 37967 ft 392 kts 268°
2026-05-06 10:02 44.44054 14.83812 37994 ft 393 kts 265°
2026-05-06 10:02 44.43965 14.76158 37995 ft 393 kts 265°
2026-05-06 10:03 44.43870 14.68530 37994 ft 392 kts 265°
2026-05-06 10:03 44.43770 14.60909 37995 ft 391 kts 265°
2026-05-06 10:04 44.43665 14.53316 37990 ft 389 kts 265°
2026-05-06 10:04 44.43554 14.45760 37991 ft 387 kts 265°
2026-05-06 10:05 44.43440 14.38234 37990 ft 386 kts 265°
2026-05-06 10:05 44.43320 14.30745 37991 ft 384 kts 265°
2026-05-06 10:06 44.43197 14.23276 37986 ft 383 kts 265°
2026-05-06 10:06 44.43069 14.15844 37979 ft 381 kts 265°
2026-05-06 10:07 44.42936 14.08425 37982 ft 381 kts 265°
2026-05-06 10:07 44.42799 14.01025 37983 ft 380 kts 265°
2026-05-06 10:08 44.42656 13.93570 37977 ft 380 kts 265°
2026-05-06 10:08 44.42510 13.86208 37985 ft 382 kts 265°
2026-05-06 10:09 44.42356 13.78745 37964 ft 384 kts 265°
2026-05-06 10:09 44.42198 13.71220 37961 ft 384 kts 265°
2026-05-06 10:10 44.42037 13.63791 37967 ft 384 kts 265°
2026-05-06 10:10 44.41870 13.56324 37961 ft 384 kts 265°
2026-05-06 10:11 44.41699 13.48851 37961 ft 384 kts 265°
2026-05-06 10:11 44.41476 13.41404 37954 ft 383 kts 264°
2026-05-06 10:12 44.41163 13.33963 37954 ft 383 kts 263°
2026-05-06 10:12 44.40842 13.26530 37948 ft 383 kts 263°
2026-05-06 10:13 44.40524 13.19094 37943 ft 383 kts 263°
2026-05-06 10:13 44.40206 13.11653 37942 ft 383 kts 263°
2026-05-06 10:14 44.39885 13.04209 37942 ft 384 kts 263°
2026-05-06 10:14 44.39558 12.96735 37925 ft 385 kts 263°
2026-05-06 10:15 44.39225 12.89245 37933 ft 386 kts 263°
2026-05-06 10:15 44.38887 12.81753 37929 ft 386 kts 263°
2026-05-06 10:16 44.38544 12.74247 37929 ft 387 kts 263°
2026-05-06 10:16 44.38196 12.66740 37935 ft 387 kts 263°
2026-05-06 10:17 44.37842 12.59222 37934 ft 388 kts 263°
2026-05-06 10:17 44.37482 12.51678 37934 ft 388 kts 263°
2026-05-06 10:18 44.37118 12.44153 37939 ft 388 kts 263°
2026-05-06 10:18 44.36749 12.36632 37938 ft 387 kts 263°
2026-05-06 10:19 44.36376 12.29130 37939 ft 386 kts 263°
2026-05-06 10:19 44.35999 12.21636 37938 ft 386 kts 263°
2026-05-06 10:20 44.35618 12.14173 37917 ft 385 kts 263°
2026-05-06 10:20 44.35232 12.06701 37917 ft 384 kts 263°
2026-05-06 10:21 44.34841 11.99234 37911 ft 383 kts 263°
2026-05-06 10:21 44.34448 11.91823 37912 ft 382 kts 263°
2026-05-06 10:22 44.34051 11.84421 37913 ft 381 kts 263°
2026-05-06 10:22 44.33651 11.77045 37918 ft 380 kts 262°
2026-05-06 10:23 44.33246 11.69684 37916 ft 380 kts 262°
2026-05-06 10:23 44.32836 11.62321 37916 ft 380 kts 262°
2026-05-06 10:24 44.32422 11.54952 37902 ft 381 kts 262°
2026-05-06 10:24 44.32002 11.47576 37915 ft 382 kts 262°
2026-05-06 10:25 44.31573 11.40122 37912 ft 383 kts 262°
2026-05-06 10:25 44.31142 11.32698 37898 ft 384 kts 262°
2026-05-06 10:26 44.30705 11.25256 37907 ft 385 kts 262°
2026-05-06 10:26 44.30262 11.17787 37915 ft 386 kts 262°
2026-05-06 10:27 44.29818 11.10302 37916 ft 387 kts 262°
2026-05-06 10:27 44.29370 11.02804 37916 ft 387 kts 262°
2026-05-06 10:28 44.28917 10.95307 37920 ft 388 kts 262°
2026-05-06 10:28 44.28458 10.87813 37939 ft 387 kts 262°
2026-05-06 10:29 44.28065 10.81598 37954 ft 386 kts 262°
2026-05-06 10:29 44.27586 10.74138 37947 ft 385 kts 262°
2026-05-06 10:30 44.27104 10.66701 37942 ft 384 kts 262°
2026-05-06 10:30 44.26620 10.59284 37940 ft 383 kts 262°
2026-05-06 10:31 44.26132 10.51883 37942 ft 382 kts 262°
2026-05-06 10:31 44.25642 10.44510 37930 ft 381 kts 262°
2026-05-06 10:32 44.25147 10.37146 37938 ft 381 kts 262°
2026-05-06 10:32 44.24646 10.29766 37933 ft 382 kts 262°
2026-05-06 10:33 44.24142 10.22402 37920 ft 381 kts 262°
2026-05-06 10:33 44.23633 10.15037 37920 ft 381 kts 262°
2026-05-06 10:34 44.23120 10.07688 37923 ft 381 kts 262°
2026-05-06 10:34 44.22601 10.00322 37909 ft 381 kts 262°
2026-05-06 10:35 44.22079 9.92980 37903 ft 380 kts 261°
2026-05-06 10:35 44.21552 9.85630 37912 ft 380 kts 261°
2026-05-06 10:36 44.21021 9.78309 37909 ft 380 kts 261°
2026-05-06 10:36 44.20487 9.70989 37912 ft 379 kts 261°
2026-05-06 10:37 44.19948 9.63684 37912 ft 378 kts 261°
2026-05-06 10:37 44.19405 9.56379 37913 ft 379 kts 261°
2026-05-06 10:38 44.18857 9.49078 37911 ft 378 kts 261°
2026-05-06 10:38 44.18305 9.41781 37891 ft 378 kts 261°
2026-05-06 10:39 44.17750 9.34500 37895 ft 378 kts 261°
2026-05-06 10:39 44.17188 9.27207 37899 ft 379 kts 260°
2026-05-06 10:40 44.16622 9.19906 37895 ft 380 kts 260°
2026-05-06 10:40 44.16044 9.12528 37902 ft 381 kts 260°
2026-05-06 10:41 44.15464 9.05174 37888 ft 382 kts 260°
2026-05-06 10:41 44.14878 8.97810 37880 ft 383 kts 260°
2026-05-06 10:42 44.14291 8.90477 37883 ft 384 kts 260°
2026-05-06 10:42 44.13694 8.83092 37887 ft 384 kts 260°
2026-05-06 10:43 44.13696 8.75644 37896 ft 393 kts 278°
2026-05-06 10:44 44.17831 8.65581 37865 ft 420 kts 313°
2026-05-06 10:44 44.20271 8.63255 37876 ft 432 kts 327°
2026-05-06 10:44 44.23137 8.61826 37875 ft 445 kts 343°
2026-05-06 10:44 44.26266 8.61468 37873 ft 457 kts 359°
2026-05-06 10:45 44.29423 8.62289 37870 ft 466 kts 16°
2026-05-06 10:45 44.32351 8.64285 37879 ft 473 kts 33°
2026-05-06 10:45 44.34806 8.67342 37878 ft 475 kts 51°
2026-05-06 10:45 44.36614 8.71190 37896 ft 474 kts 66°
2026-05-06 10:46 44.37671 8.75519 37879 ft 469 kts 84°
2026-05-06 10:46 44.38412 8.84494 37878 ft 468 kts 88°
2026-05-06 10:47 44.39102 8.93564 37881 ft 470 kts 86°
2026-05-06 10:47 44.39559 9.02718 37857 ft 464 kts 104°
2026-05-06 10:47 44.38709 9.06937 37897 ft 452 kts 120°
2026-05-06 10:48 44.37116 9.10645 37897 ft 440 kts 136°
2026-05-06 10:48 44.34975 9.13623 37865 ft 429 kts 150°
2026-05-06 10:48 44.32456 9.15730 37891 ft 417 kts 163°
2026-05-06 10:48 44.29728 9.16912 37881 ft 407 kts 177°
2026-05-06 10:49 44.26942 9.17158 37885 ft 397 kts 189°
2026-05-06 10:49 44.24247 9.16518 37888 ft 390 kts 201°
2026-05-06 10:49 44.21765 9.15072 37885 ft 385 kts 213°
2026-05-06 10:49 44.19603 9.12928 37887 ft 381 kts 224°
2026-05-06 10:50 44.17835 9.10188 37891 ft 380 kts 234°
2026-05-06 10:50 44.15512 9.03613 37881 ft 382 kts 255°
2026-05-06 10:51 44.14766 8.96253 37884 ft 385 kts 261°
2026-05-06 10:51 44.14203 8.88828 37877 ft 385 kts 260°
2026-05-06 10:52 44.13570 8.81431 37880 ft 384 kts 260°
2026-05-06 10:52 44.13422 8.77718 37860 ft 388 kts 271°
2026-05-06 10:52 44.13974 8.74013 37881 ft 395 kts 283°
2026-05-06 10:52 44.15067 8.70536 37884 ft 402 kts 294°
2026-05-06 10:53 44.16692 8.67318 37872 ft 411 kts 306°
2026-05-06 10:53 44.18844 8.64631 37876 ft 422 kts 319°
2026-05-06 10:53 44.21477 8.62712 37864 ft 435 kts 334°
2026-05-06 10:53 44.24457 8.61782 37884 ft 446 kts 350°
2026-05-06 10:54 44.27593 8.61976 37875 ft 457 kts
2026-05-06 10:54 44.30639 8.63355 37872 ft 466 kts 24°
2026-05-06 10:54 44.33355 8.65880 37883 ft 471 kts 41°
2026-05-06 10:54 44.35484 8.69356 37895 ft 472 kts 58°
2026-05-06 10:55 44.36922 8.73399 37864 ft 471 kts 75°
2026-05-06 10:55 44.37579 8.77905 37914 ft 466 kts 86°
2026-05-06 10:55 44.37926 8.82350 37881 ft 467 kts 87°
2026-05-06 10:56 44.38585 8.91421 37884 ft 470 kts 86°
2026-05-06 10:56 44.39303 9.00531 37864 ft 470 kts 94°
2026-05-06 10:56 44.38853 9.04992 37897 ft 459 kts 113°
2026-05-06 10:57 44.37544 9.08991 37875 ft 449 kts 129°
2026-05-06 10:57 44.35583 9.12303 37883 ft 437 kts 144°
2026-05-06 10:57 44.33200 9.14744 37874 ft 425 kts 158°
2026-05-06 10:57 44.30491 9.16293 37885 ft 415 kts 172°
2026-05-06 10:58 44.27673 9.16865 37887 ft 404 kts 185°
2026-05-06 10:58 44.24906 9.16496 37883 ft 396 kts 198°
2026-05-06 10:58 44.22325 9.15264 37882 ft 390 kts 210°
2026-05-06 10:58 44.20042 9.13272 37887 ft 385 kts 222°
2026-05-06 10:59 44.18161 9.10651 37889 ft 382 kts 233°
2026-05-06 10:59 44.15635 9.04186 37874 ft 383 kts 253°
2026-05-06 11:00 44.14808 8.96880 37884 ft 385 kts 261°
2026-05-06 11:00 44.14253 8.89450 37878 ft 385 kts 261°
2026-05-06 11:01 44.13625 8.82058 37883 ft 383 kts 260°
2026-05-06 11:01 44.13835 8.74657 37884 ft 392 kts 282°
2026-05-06 11:02 44.16388 8.67860 37873 ft 407 kts 304°
2026-05-06 11:02 44.18444 8.65087 37873 ft 417 kts 317°
2026-05-06 11:02 44.20995 8.63038 37883 ft 430 kts 332°
2026-05-06 11:02 44.23909 8.61940 37876 ft 442 kts 347°
2026-05-06 11:03 44.26987 8.61936 37878 ft 453 kts
2026-05-06 11:03 44.30050 8.63100 37880 ft 462 kts 21°
2026-05-06 11:03 44.32828 8.65413 37883 ft 469 kts 38°
2026-05-06 11:03 44.35068 8.68730 37885 ft 471 kts 55°
2026-05-06 11:04 44.36645 8.72725 37882 ft 471 kts 71°
2026-05-06 11:04 44.37413 8.77143 37897 ft 466 kts 85°
2026-05-06 11:04 44.37777 8.81648 37888 ft 467 kts 87°
2026-05-06 11:05 44.38434 8.90718 37891 ft 470 kts 86°
2026-05-06 11:05 44.39187 8.99844 37880 ft 472 kts 90°
2026-05-06 11:05 44.38887 9.04358 37882 ft 462 kts 110°
2026-05-06 11:06 44.38178 9.07125 37894 ft 455 kts 122°
2026-05-06 11:06 44.35820 9.11832 37886 ft 440 kts 142°
2026-05-06 11:06 44.33455 9.14429 37881 ft 428 kts 156°
2026-05-06 11:06 44.30772 9.16096 37892 ft 417 kts 170°
2026-05-06 11:07 44.27955 9.16785 37882 ft 407 kts 184°
2026-05-06 11:07 44.23384 9.15838 37892 ft 393 kts 205°
2026-05-06 11:07 44.20958 9.14160 37892 ft 387 kts 217°
2026-05-06 11:08 44.18918 9.11827 37889 ft 383 kts 228°
2026-05-06 11:08 44.16014 9.05662 37888 ft 382 kts 247°
2026-05-06 11:08 44.15291 9.02102 37896 ft 384 kts 258°
2026-05-06 11:09 44.14926 8.98412 37886 ft 385 kts 261°
2026-05-06 11:09 44.14374 8.91009 37887 ft 384 kts 261°
2026-05-06 11:10 44.13763 8.83630 37876 ft 383 kts 260°
2026-05-06 11:10 44.13563 8.76238 37890 ft 388 kts 277°
2026-05-06 11:10 44.14336 8.72651 37860 ft 396 kts 288°
2026-05-06 11:11 44.15640 8.69248 37887 ft 403 kts 298°
2026-05-06 11:11 44.17459 8.66228 37876 ft 413 kts 310°
2026-05-06 11:11 44.19794 8.63813 37876 ft 425 kts 325°
2026-05-06 11:11 44.22569 8.62252 37867 ft 437 kts 340°
2026-05-06 11:12 44.25621 8.61734 37880 ft 449 kts 356°
2026-05-06 11:12 44.28746 8.62369 37877 ft 460 kts 13°
2026-05-06 11:12 44.31689 8.64178 37881 ft 468 kts 30°
2026-05-06 11:12 44.34206 8.67075 37883 ft 472 kts 48°
2026-05-06 11:13 44.36092 8.70818 37904 ft 472 kts 64°
2026-05-06 11:13 44.37244 8.75092 37870 ft 469 kts 81°
2026-05-06 11:13 44.37701 8.79589 37919 ft 467 kts 87°
2026-05-06 11:14 44.38355 8.88670 37891 ft 471 kts 87°
2026-05-06 11:14 44.39111 8.97807 37882 ft 474 kts 86°
2026-05-06 11:14 44.39224 9.02379 37852 ft 468 kts 103°
2026-05-06 11:15 44.38408 9.06653 37898 ft 456 kts 120°
2026-05-06 11:15 44.36812 9.10411 37890 ft 445 kts 135°
2026-05-06 11:15 44.34638 9.13412 37881 ft 433 kts 150°
2026-05-06 11:15 44.32081 9.15504 37892 ft 421 kts 164°
2026-05-06 11:16 44.29346 9.16633 37873 ft 410 kts 178°
2026-05-06 11:16 44.26534 9.16811 37891 ft 400 kts 190°
2026-05-06 11:16 44.23834 9.16084 37891 ft 392 kts 202°
2026-05-06 11:16 44.21374 9.14543 37890 ft 386 kts 214°
2026-05-06 11:17 44.19251 9.12300 37884 ft 382 kts 226°
2026-05-06 11:17 44.16217 9.06300 37893 ft 380 kts 245°
2026-05-06 11:17 44.15390 9.02801 37886 ft 382 kts 256°
2026-05-06 11:18 44.14990 8.99139 37884 ft 383 kts 260°
2026-05-06 11:18 44.14431 8.91753 37879 ft 383 kts 261°
2026-05-06 11:19 44.13830 8.84401 37884 ft 382 kts 259°
2026-05-06 11:19 44.13478 8.77036 37874 ft 387 kts 274°
2026-05-06 11:19 44.14137 8.73376 37877 ft 394 kts 285°
2026-05-06 11:20 44.15310 8.69952 37884 ft 402 kts 295°
2026-05-06 11:20 44.17010 8.66811 37873 ft 412 kts 307°
2026-05-06 11:20 44.19235 8.64227 37869 ft 424 kts 321°
2026-05-06 11:20 44.21932 8.62440 37871 ft 437 kts 336°
2026-05-06 11:21 44.24957 8.61662 37875 ft 449 kts 353°
2026-05-06 11:21 44.28107 8.62029 37878 ft 460 kts
2026-05-06 11:21 44.31134 8.63586 37881 ft 469 kts 27°
2026-05-06 11:21 44.33782 8.66262 37884 ft 473 kts 44°
2026-05-06 11:22 44.35824 8.69859 37894 ft 474 kts 60°
2026-05-06 11:22 44.37168 8.74039 37876 ft 472 kts 78°
2026-05-06 11:22 44.37725 8.78537 37922 ft 467 kts 87°
2026-05-06 11:23 44.38382 8.87564 37881 ft 471 kts 87°
2026-05-06 11:23 44.39127 8.96704 37883 ft 475 kts 86°
2026-05-06 11:23 44.39395 9.01295 37856 ft 471 kts 98°
2026-05-06 11:24 44.38783 9.05716 37900 ft 458 kts 116°
2026-05-06 11:24 44.37354 9.09620 37879 ft 446 kts 132°
2026-05-06 11:24 44.35312 9.12801 37881 ft 434 kts 147°
2026-05-06 11:24 44.32851 9.15117 37882 ft 422 kts 161°
2026-05-06 11:25 44.30130 9.16502 37883 ft 410 kts 174°
2026-05-06 11:25 44.27338 9.16927 37890 ft 400 kts 187°
2026-05-06 11:25 44.24612 9.16442 37892 ft 392 kts 199°
2026-05-06 11:25 44.22082 9.15124 37886 ft 385 kts 211°
2026-05-06 11:26 44.19862 9.13083 37890 ft 381 kts 223°
2026-05-06 11:26 44.16616 9.07400 37900 ft 378 kts 241°
2026-05-06 11:26 44.15601 9.04011 37882 ft 381 kts 253°
2026-05-06 11:27 44.15107 9.00383 37892 ft 382 kts 259°
2026-05-06 11:27 44.14526 8.93014 37884 ft 383 kts 260°
2026-05-06 11:28 44.13939 8.85662 37877 ft 382 kts 259°
2026-05-06 11:28 44.13397 8.78316 37861 ft 385 kts 269°
2026-05-06 11:28 44.13832 8.74661 37892 ft 392 kts 281°
2026-05-06 11:29 44.14841 8.71098 37878 ft 400 kts 291°
2026-05-06 11:29 44.16361 8.67807 37872 ft 409 kts 303°
2026-05-06 11:29 44.18413 8.64980 37867 ft 421 kts 316°
2026-05-06 11:29 44.20969 8.62870 37867 ft 434 kts 331°
2026-05-06 11:30 44.23912 8.61709 37873 ft 447 kts 347°
2026-05-06 11:30 44.27061 8.61659 37871 ft 459 kts
2026-05-06 11:30 44.30175 8.62800 37884 ft 468 kts 20°
2026-05-06 11:30 44.33004 8.65108 37875 ft 474 kts 38°
2026-05-06 11:31 44.35286 8.68426 37882 ft 476 kts 56°
2026-05-06 11:31 44.36904 8.72443 37884 ft 474 kts 71°
2026-05-06 11:31 44.37703 8.76868 37896 ft 468 kts 86°
2026-05-06 11:32 44.38389 8.85938 37883 ft 471 kts 88°
2026-05-06 11:32 44.39110 8.95020 37879 ft 474 kts 86°
2026-05-06 11:33 44.39244 9.04141 37881 ft 462 kts 110°
2026-05-06 11:33 44.38092 9.08265 37878 ft 450 kts 127°
2026-05-06 11:33 44.36260 9.11724 37892 ft 437 kts 141°
2026-05-06 11:33 44.33952 9.14376 37876 ft 425 kts 155°
2026-05-06 11:34 44.31360 9.16114 37894 ft 413 kts 168°
2026-05-06 11:34 44.28597 9.16936 37877 ft 402 kts 181°
2026-05-06 11:34 44.25839 9.16835 37896 ft 393 kts 194°
2026-05-06 11:34 44.23227 9.15882 37892 ft 386 kts 206°
2026-05-06 11:35 44.20862 9.14159 37885 ft 381 kts 217°
2026-05-06 11:35 44.18853 9.11784 37884 ft 378 kts 228°
2026-05-06 11:35 44.17244 9.08878 37902 ft 377 kts 237°
2026-05-06 11:36 44.15300 9.02122 37888 ft 381 kts 257°
2026-05-06 11:36 44.14655 8.94774 37885 ft 383 kts 260°
2026-05-06 11:37 44.14087 8.87411 37881 ft 382 kts 259°
2026-05-06 11:37 44.13457 8.80124 37880 ft 381 kts 260°
2026-05-06 11:37 44.13541 8.76413 37887 ft 389 kts 275°
2026-05-06 11:38 44.14290 8.72761 37878 ft 397 kts 286°
2026-05-06 11:38 44.17351 8.66212 37865 ft 417 kts 309°
2026-05-06 11:38 44.19672 8.63703 37861 ft 429 kts 323°
2026-05-06 11:39 44.22459 8.62030 37866 ft 443 kts 339°
2026-05-06 11:39 44.25507 8.61403 37870 ft 455 kts 355°
2026-05-06 11:39 44.28686 8.61926 37877 ft 466 kts 12°
2026-05-06 11:39 44.31707 8.63644 37879 ft 474 kts 29°
2026-05-06 11:40 44.34313 8.66471 37879 ft 477 kts 47°
2026-05-06 11:40 44.36291 8.70176 37907 ft 476 kts 63°
2026-05-06 11:40 44.37552 8.74434 37863 ft 472 kts 80°
2026-05-06 11:41 44.38398 8.83474 37876 ft 470 kts 88°
2026-05-06 11:41 44.39077 8.92605 37882 ft 474 kts 87°
2026-05-06 11:42 44.39674 9.01782 37845 ft 470 kts 101°
2026-05-06 11:42 44.38970 9.06155 37893 ft 455 kts 118°
2026-05-06 11:42 44.37488 9.09981 37887 ft 443 kts 134°
2026-05-06 11:42 44.35430 9.13086 37877 ft 430 kts 148°
2026-05-06 11:43 44.32971 9.15349 37878 ft 418 kts 161°
2026-05-06 11:43 44.30279 9.16696 37891 ft 406 kts 174°
2026-05-06 11:43 44.27507 9.17117 37886 ft 396 kts 187°
2026-05-06 11:44 44.22299 9.15382 37886 ft 382 kts 210°
2026-05-06 11:44 44.20077 9.13400 37881 ft 378 kts 222°
2026-05-06 11:44 44.18316 9.10702 37902 ft 376 kts 235°
2026-05-06 11:44 44.17017 9.07605 37891 ft 377 kts 243°
2026-05-06 11:45 44.16114 9.04175 37867 ft 380 kts 256°
2026-05-06 11:45 44.15687 9.00533 37903 ft 381 kts 258°
2026-05-06 11:45 44.14980 8.93221 37883 ft 381 kts 258°
2026-05-06 11:46 44.14272 8.85923 37882 ft 380 kts 258°